This demonstration page uses our WeatherBlox Daily Observations layout. Learn more.

Left ArrowRight Arrow

Hourly Observations for January 24, 2015

Temp ( °F °C ) Dew Point ( °F °C ) Humidity (%) Winds ( mph kmh ) Pressure ( in mb ) Visibility ( mi km ) Precip ( " mm )
12:51 am 00:51 Clear 39 3.9 20 -6.7 46 46 SE 10 17 30.23 1024 10 16 0.00 0.00
1:51 am 01:51 Clear 37 2.8 21 -6.1 52 52 SE 8 13 30.24 1024 10 16 0.00 0.00
2:51 am 02:51 Clear 37 2.8 21 -6.1 52 52 SE 10 17 30.25 1024 10 16 0.00 0.00
3:51 am 03:51 Clear 37 2.8 22 -5.6 54 54 ESE 12 19 30.25 1024 10 16 0.00 0.00
4:51 am 04:51 Clear 35 1.7 22 -5.6 59 59 ESE 12 19 30.26 1025 10 16 0.00 0.00
5:51 am 05:51 Clear 35 1.7 21 -6.1 57 57 ESE 12 19 30.26 1025 10 16 0.00 0.00
6:51 am 06:51 Clear 34 1.1 21 -6.1 59 59 ESE 13 20 30.28 1026 10 16 0.00 0.00
7:51 am 07:51 Sunny 34 1.1 21 -6.1 59 59 SE 9 15 30.30 1026 10 16 0.00 0.00
8:51 am 08:51 Sunny 39 3.9 22 -5.6 50 50 ESE 13 20 30.30 1026 10 16 0.00 0.00
9:51 am 09:51 Sunny 46 7.8 22 -5.6 38 38 E 12 19 30.30 1026 10 16 0.00 0.00
10:51 am 10:51 Sunny 47 8.3 22 -5.6 37 37 SSE 13 20 30.29 1026 10 16 0.00 0.00
11:51 am 11:51 Sunny 50 10 22 -5.6 33 33 S 10 17 30.25 1024 10 16 0.00 0.00
12:51 pm 12:51 Sunny 54 12.2 21 -6.1 28 28 SSE 8 13 30.19 1022 10 16 0.00 0.00
1:51 pm 13:51 Sunny 58 14.4 17 -8.3 20 20 Calm 30.15 1021 10 16 0.00 0.00
2:51 pm 14:51 Sunny 60 15.6 14 -10 16 16 SSE 8 13 30.12 1020 10 16 0.00 0.00
3:51 pm 15:51 Sunny 61 16.1 12 -11.1 14 14 S 9 15 30.11 1020 10 16 0.00 0.00
4:51 pm 16:51 Sunny 59 15 12 -11.1 15 15 SSW 9 15 30.10 1019 10 16 0.00 0.00
5:51 pm 17:51 Clear 55 12.8 13 -10.6 19 19 SE 5 7 30.09 1019 10 16 0.00 0.00
6:51 pm 18:51 Clear 52 11.1 12 -11.1 20 20 ESE 8 13 30.12 1020 10 16 0.00 0.00
7:51 pm 19:51 Clear 50 10 13 -10.6 22 22 ESE 8 13 30.14 1021 10 16 0.00 0.00
8:51 pm 20:51 Clear 49 9.4 14 -10 25 25 SE 9 15 30.14 1021 10 16 0.00 0.00
9:51 pm 21:51 Clear 43 6.1 14 -10 31 31 ESE 6 9 30.16 1022 10 16 0.00 0.00
10:51 pm 22:51 Clear 42 5.6 15 -9.4 33 33 S 12 19 30.17 1022 10 16 0.00 0.00
11:51 pm 23:51 Clear 40 4.4 17 -8.3 40 40 ESE 8 13 30.17 1022 10 16 0.00 0.00

Powered by AerisWeather